TimeMDT,TemperatureF,Dew PointF,Humidity,Sea Level PressureIn,VisibilityMPH,Wind Direction,Wind SpeedMPH,Gust SpeedMPH,PrecipitationIn,Events,Conditions,WindDirDegrees,DateUTC
12:15 AM,44.6,23.0,43,30.15,10.0,Calm,Calm,-,N/A,,Mostly Cloudy,0,2013-05-31 06:15:00
12:35 AM,44.6,23.0,43,30.14,10.0,Calm,Calm,-,N/A,,Mostly Cloudy,0,2013-05-31 06:35:00
12:55 AM,42.8,23.0,46,30.14,10.0,Calm,Calm,-,N/A,,Scattered Clouds,0,2013-05-31 06:55:00
1:15 AM,42.8,23.0,46,30.14,10.0,Calm,Calm,-,N/A,,Clear,0,2013-05-31 07:15:00
1:35 AM,42.8,24.8,49,30.14,10.0,East,3.5,-,N/A,,Clear,100,2013-05-31 07:35:00
1:55 AM,41.0,24.8,53,30.14,10.0,East,5.8,-,N/A,,Clear,100,2013-05-31 07:55:00
2:15 AM,41.0,23.0,49,30.14,10.0,East,5.8,-,N/A,,Scattered Clouds,100,2013-05-31 08:15:00
2:35 AM,41.0,24.8,53,30.14,10.0,Calm,Calm,-,N/A,,Scattered Clouds,0,2013-05-31 08:35:00
2:55 AM,41.0,23.0,49,30.14,10.0,SE,3.5,-,N/A,,Scattered Clouds,130,2013-05-31 08:55:00
3:15 AM,37.4,23.0,56,30.14,10.0,Calm,Calm,-,N/A,,Scattered Clouds,0,2013-05-31 09:15:00
3:35 AM,39.2,23.0,52,30.14,10.0,Calm,Calm,-,N/A,,Scattered Clouds,0,2013-05-31 09:35:00
3:55 AM,39.2,24.8,56,30.14,10.0,ESE,3.5,-,N/A,,Mostly Cloudy,110,2013-05-31 09:55:00
4:15 AM,39.2,24.8,56,30.14,10.0,SE,3.5,-,N/A,,Mostly Cloudy,130,2013-05-31 10:15:00
4:35 AM,37.4,23.0,56,30.15,10.0,SE,4.6,-,N/A,,Scattered Clouds,130,2013-05-31 10:35:00
4:55 AM,37.4,23.0,56,30.15,10.0,SE,5.8,-,N/A,,Scattered Clouds,140,2013-05-31 10:55:00
5:15 AM,37.4,24.8,60,30.16,10.0,East,3.5,-,N/A,,Mostly Cloudy,90,2013-05-31 11:15:00
5:35 AM,37.4,23.0,56,30.16,10.0,Calm,Calm,-,N/A,,Scattered Clouds,0,2013-05-31 11:35:00
5:55 AM,37.4,23.0,56,30.16,10.0,SE,4.6,-,N/A,,Mostly Cloudy,140,2013-05-31 11:55:00
6:15 AM,37.4,24.8,60,30.18,10.0,East,3.5,-,N/A,,Overcast,100,2013-05-31 12:15:00
6:35 AM,37.4,26.6,65,30.18,10.0,ESE,3.5,-,N/A,,Overcast,120,2013-05-31 12:35:00
6:55 AM,37.4,26.6,65,30.20,10.0,Calm,Calm,-,N/A,,Overcast,0,2013-05-31 12:55:00
7:15 AM,39.2,26.6,61,30.19,10.0,Calm,Calm,-,N/A,,Overcast,0,2013-05-31 13:15:00
7:35 AM,41.0,26.6,57,30.20,10.0,Calm,Calm,-,N/A,,Overcast,0,2013-05-31 13:35:00
7:55 AM,44.6,24.8,46,30.21,10.0,NNW,5.8,-,N/A,,Mostly Cloudy,330,2013-05-31 13:55:00
8:15 AM,44.6,26.6,49,30.22,10.0,Calm,Calm,-,N/A,,Mostly Cloudy,0,2013-05-31 14:15:00
8:35 AM,44.6,23.0,43,30.23,10.0,West,5.8,19.6,N/A,,Overcast,270,2013-05-31 14:35:00
8:55 AM,44.6,24.8,46,30.23,10.0,WSW,4.6,-,N/A,,Overcast,240,2013-05-31 14:55:00
9:15 AM,46.4,23.0,40,30.23,10.0,West,8.1,-,N/A,,Overcast,260,2013-05-31 15:15:00
9:35 AM,46.4,21.2,37,30.23,10.0,WNW,4.6,18.4,N/A,,Overcast,290,2013-05-31 15:35:00
9:55 AM,48.2,21.2,34,30.23,10.0,NNW,5.8,-,N/A,,Scattered Clouds,330,2013-05-31 15:55:00
10:15 AM,50.0,21.2,32,30.22,10.0,West,5.8,16.1,N/A,,Clear,270,2013-05-31 16:15:00
10:35 AM,50.0,21.2,32,30.22,10.0,West,9.2,20.7,N/A,,Clear,260,2013-05-31 16:35:00
10:55 AM,50.0,17.6,28,30.22,10.0,West,11.5,23.0,N/A,,Clear,280,2013-05-31 16:55:00
11:15 AM,50.0,14.0,24,30.23,10.0,WNW,10.4,21.9,N/A,,Clear,290,2013-05-31 17:15:00
11:35 AM,51.8,14.0,22,30.23,10.0,WNW,9.2,23.0,N/A,,Clear,290,2013-05-31 17:35:00
11:55 AM,51.8,14.0,22,30.23,10.0,WNW,12.7,29.9,N/A,,Clear,290,2013-05-31 17:55:00
12:15 PM,53.6,12.2,19,30.23,10.0,West,11.5,27.6,N/A,,Clear,280,2013-05-31 18:15:00
12:35 PM,53.6,14.0,21,30.23,10.0,WNW,5.8,-,N/A,,Clear,300,2013-05-31 18:35:00
12:55 PM,53.6,15.8,22,30.22,10.0,West,18.4,23.0,N/A,,Clear,270,2013-05-31 18:55:00
1:15 PM,53.6,12.2,19,30.22,10.0,West,15.0,23.0,N/A,,Clear,260,2013-05-31 19:15:00
1:35 PM,53.6,12.2,19,30.22,10.0,West,19.6,26.5,N/A,,Clear,260,2013-05-31 19:35:00
1:55 PM,55.4,10.4,17,30.22,10.0,West,10.4,29.9,N/A,,Clear,260,2013-05-31 19:55:00
2:15 PM,55.4,10.4,17,30.22,10.0,West,9.2,20.7,N/A,,Clear,280,2013-05-31 20:15:00
2:35 PM,55.4,8.6,15,30.22,10.0,West,17.3,31.1,N/A,,Clear,270,2013-05-31 20:35:00
2:55 PM,55.4,6.8,14,30.22,10.0,West,17.3,32.2,N/A,,Clear,260,2013-05-31 20:55:00
3:15 PM,55.4,5.0,13,30.22,10.0,NW,8.1,27.6,N/A,,Clear,310,2013-05-31 21:15:00
3:35 PM,55.4,6.8,14,30.22,10.0,West,11.5,35.7,N/A,,Clear,270,2013-05-31 21:35:00
3:55 PM,55.4,8.6,15,30.22,10.0,West,18.4,31.1,N/A,,Clear,270,2013-05-31 21:55:00
4:15 PM,55.4,6.8,14,30.22,10.0,West,17.3,28.8,N/A,,Clear,280,2013-05-31 22:15:00
4:35 PM,55.4,5.0,13,30.22,10.0,West,12.7,29.9,N/A,,Clear,270,2013-05-31 22:35:00
4:55 PM,55.4,5.0,13,30.23,10.0,West,18.4,29.9,N/A,,Clear,260,2013-05-31 22:55:00
5:15 PM,55.4,6.8,14,30.23,10.0,West,18.4,26.5,N/A,,Clear,260,2013-05-31 23:15:00
5:35 PM,55.4,6.8,14,30.23,10.0,West,17.3,27.6,N/A,,Clear,270,2013-05-31 23:35:00
5:55 PM,55.4,8.6,15,30.23,10.0,West,23.0,29.9,N/A,,Clear,270,2013-05-31 23:55:00
6:15 PM,53.6,8.6,16,30.23,10.0,West,23.0,27.6,N/A,,Clear,260,2013-06-01 00:15:00
6:35 PM,53.6,10.4,18,30.24,10.0,West,17.3,25.3,N/A,,Clear,260,2013-06-01 00:35:00
6:55 PM,53.6,10.4,18,30.24,10.0,West,19.6,26.5,N/A,,Clear,260,2013-06-01 00:55:00
7:15 PM,53.6,10.4,18,30.24,10.0,West,16.1,23.0,N/A,,Clear,270,2013-06-01 01:15:00
7:35 PM,53.6,10.4,18,30.24,10.0,West,15.0,21.9,N/A,,Clear,270,2013-06-01 01:35:00
7:55 PM,53.6,10.4,18,30.25,10.0,West,12.7,24.2,N/A,,Clear,280,2013-06-01 01:55:00
8:15 PM,51.8,10.4,19,30.26,10.0,West,10.4,16.1,N/A,,Clear,280,2013-06-01 02:15:00
8:35 PM,51.8,10.4,19,30.26,10.0,NW,3.5,-,N/A,,Clear,310,2013-06-01 02:35:00
8:55 PM,50.0,10.4,20,30.27,10.0,WNW,3.5,-,N/A,,Clear,300,2013-06-01 02:55:00
9:15 PM,50.0,10.4,20,30.28,10.0,West,5.8,-,N/A,,Clear,280,2013-06-01 03:15:00
9:35 PM,50.0,10.4,20,30.28,10.0,WNW,4.6,-,N/A,,Clear,300,2013-06-01 03:35:00
9:55 PM,50.0,12.2,22,30.29,10.0,West,4.6,-,N/A,,Clear,280,2013-06-01 03:55:00
10:15 PM,46.4,12.2,25,30.30,10.0,Calm,Calm,-,N/A,,Clear,0,2013-06-01 04:15:00
10:35 PM,46.4,12.2,25,30.30,10.0,Calm,Calm,-,N/A,,Clear,0,2013-06-01 04:35:00
10:55 PM,44.6,12.2,27,30.31,10.0,Calm,Calm,-,N/A,,Clear,0,2013-06-01 04:55:00
11:15 PM,44.6,14.0,29,30.30,10.0,Calm,Calm,-,N/A,,Clear,0,2013-06-01 05:15:00
11:35 PM,42.8,14.0,31,30.31,10.0,SSE,3.5,-,N/A,,Clear,150,2013-06-01 05:35:00
11:55 PM,42.8,14.0,31,30.32,10.0,Calm,Calm,-,N/A,,Clear,0,2013-06-01 05:55:00